Theta_e
300 300 300 300 300 300 300 300 301 301 301 301 301 305 306 309 309 308 309 309 309 309 309 311 311 312 312 312 313 312 309 309 309 311 310 311 310 312 311 311 311 310 310 309 310
300 300 300 300 300 300 300 300 301 301 301 301 301 305 306 308 310 308 308 309 309 308 309 312 312 311 311 311 311 308 306 309 309 310 311 311 310 310 311 310 310 310 310 310 310
300 300 300 300 300 300 300 300 301 301 301 301 302 304 309 310 311 308 308 308 308 308 309 311 313 313 312 312 311 309 307 310 310 312 312 311 310 311 310 310 309 308 308 308 309
300 300 300 300 300 300 300 300 300 300 300 301 302 304 307 309 312 308 308 308 308 308 308 310 313 312 310 310 311 311 311 311 311 312 312 311 310 310 309 309 308 307 307 307 308
300 300 300 300 300 300 300 300 300 300 300 301 302 304 307 308 308 308 308 308 308 308 309 310 311 311 309 311 311 310 310 311 311 311 311 311 309 309 309 308 307 307 306 307 307
300 300 300 300 300 300 300 300 300 300 300 301 302 304 309 310 308 308 308 308 308 308 310 310 311 311 311 311 310 311 311 311 311 311 311 310 310 310 310 307 307 306 306 306 306
300 300 300 300 300 301 300 300 301 301 301 301 302 306 309 309 308 307 308 308 308 309 312 311 311 311 312 310 311 310 310 309 310 310 311 309 310 310 307 306 306 306 306 306 306
300 300 300 300 300 300 301 301 301 301 301 301 303 306 307 308 308 307 308 308 309 310 311 312 311 312 312 310 307 308 307 309 309 310 310 309 309 308 306 306 306 306 305 305 305
301 300 300 300 300 300 300 301 301 301 302 302 303 305 309 307 307 307 308 308 309 311 312 312 310 309 309 306 306 306 308 310 309 309 310 309 310 306 306 306 305 305 304 304 305
307 302 301 300 300 300 300 301 302 303 304 305 306 308 307 309 306 308 308 308 310 311 311 312 308 304 305 304 305 307 309 309 309 308 309 310 310 307 306 305 305 304 304 305 304
310 308 304 301 300 300 300 302 304 305 305 307 308 307 308 308 305 308 309 310 311 310 308 308 306 304 309 308 307 308 310 309 307 307 309 310 310 308 305 305 305 305 304 304 304
310 310 306 302 300 300 300 301 301 302 300 301 303 306 307 306 308 309 309 310 309 308 307 306 308 306 306 308 309 309 306 306 306 306 310 309 308 307 305 305 305 305 304 303 303
311 310 308 304 300 300 300 300 300 300 299 303 304 304 306 305 308 309 309 309 308 308 307 305 308 306 306 306 308 305 305 301 308 307 309 306 304 305 304 304 305 303 303 302 302
313 311 308 305 303 301 300 300 300 299 303 306 305 306 307 308 308 309 308 310 308 307 306 307 306 306 305 306 306 306 305 306 308 308 308 304 306 297 301 303 303 303 302 301 301
314 311 309 305 301 300 300 299 299 304 314 306 305 306 307 306 307 308 307 306 307 308 304 306 306 306 307 306 305 305 306 308 307 308 311 303 307 301 300 303 303 303 301 300 299
314 312 309 306 302 301 300 298 301 309 313 306 304 304 306 307 307 307 308 308 308 306 306 305 306 305 306 305 305 305 307 304 305 308 305 298 302 303 300 302 302 303 300 298 298
314 311 309 307 303 301 301 300 303 308 305 306 303 305 305 306 307 306 307 307 307 306 308 306 307 305 306 305 305 306 304 302 302 301 306 303 304 304 301 301 303 303 299 298 298
315 310 309 306 303 301 299 302 301 300 302 303 304 305 305 305 306 306 306 305 305 303 305 306 306 306 305 305 304 307 304 302 302 303 303 304 307 307 301 303 304 301 298 298 298
313 309 308 306 303 300 299 301 304 302 304 304 305 305 303 305 305 305 304 304 304 303 305 305 307 305 304 305 304 306 306 304 305 300 305 303 304 302 302 300 300 299 298 298 298
311 308 306 305 302 300 299 303 299 302 303 304 310 304 303 302 305 304 303 303 306 303 304 305 307 304 305 306 305 305 303 306 302 300 302 301 305 305 305 303 299 297 298 298 298
311 306 305 303 301 299 301 299 300 300 304 305 305 303 304 304 302 304 303 303 304 304 305 304 303 303 305 305 305 306 307 305 304 305 304 305 303 301 303 302 302 299 298 298 298
307 302 303 301 300 299 300 295 297 299 302 303 302 303 302 303 303 303 304 303 305 305 306 304 302 303 305 302 302 304 304 304 303 302 304 306 305 302 301 301 302 301 298 299 298
306 300 301 301 305 298 295 296 296 299 301 302 302 302 302 303 305 303 303 303 305 303 304 303 299 297 300 301 302 304 304 304 303 303 305 305 303 299 300 301 302 300 298 299 298
304 299 299 298 300 302 298 297 299 297 300 302 302 301 302 303 301 303 304 303 304 304 305 303 300 302 305 305 301 304 304 304 305 304 304 305 303 302 300 300 299 299 298 299 298
304 300 300 299 300 298 299 297 298 298 297 301 300 301 303 303 302 304 303 303 303 305 303 302 299 299 301 301 303 304 304 304 306 304 304 303 303 303 301 299 301 302 298 298 298
303 299 299 297 301 300 299 299 299 298 297 300 299 301 302 304 304 303 304 304 304 302 302 300 299 297 296 297 299 300 302 302 304 305 304 304 305 300 303 302 301 301 299 298 299
306 306 305 302 302 301 302 301 300 300 298 300 300 301 302 302 302 301 303 303 302 303 302 300 297 295 297 293 292 300 296 300 301 300 304 305 305 300 299 299 301 302 301 300 300
Wind_Speed
6 7 8 8 8 8 8 8 9 8 9 9 7 6 3 2 8 6 6 9 10 9 6 5 6 6 6 6 5 4 4 2 3 2 2 6 5 5 6 3 4 8 12 18 24
5 6 7 7 7 8 7 7 8 8 8 8 6 5 4 2 3 10 9 9 8 8 4 3 5 5 5 4 4 5 3 5 3 3 2 4 2 7 5 8 8 16 18 21 23
6 6 7 7 7 7 8 7 7 7 8 8 6 5 4 2 3 7 8 7 8 7 4 4 6 5 5 4 5 3 3 3 3 1 1 2 2 4 3 3 6 17 26 26 25
7 7 7 7 7 7 7 7 7 8 7 6 5 4 3 4 1 5 6 7 7 8 3 3 5 4 4 4 3 5 3 2 1 1 3 3 4 4 8 3 12 15 18 21 22
8 7 8 8 8 8 8 8 8 7 6 4 4 3 2 3 3 4 5 6 6 6 4 4 4 4 6 5 4 4 2 3 3 3 4 5 3 4 4 16 16 19 21 24 24
9 9 9 9 9 8 8 9 9 8 7 5 4 2 1 2 3 3 3 6 6 7 9 5 6 9 9 4 4 4 3 3 3 4 2 3 2 3 6 19 19 21 24 25 23
11 10 10 11 10 10 9 8 9 8 5 4 3 1 1 4 3 3 3 5 6 7 9 10 7 1 5 5 5 5 3 2 3 5 1 2 2 3 12 16 20 24 25 24 23
13 11 10 10 12 10 10 9 9 7 6 4 2 0 2 5 3 2 2 4 6 7 7 10 10 9 4 10 5 4 4 2 2 6 3 2 2 3 12 18 23 23 25 27 25
13 12 11 9 11 11 10 10 9 8 7 5 2 1 1 5 3 1 2 2 5 6 7 6 5 6 4 4 4 5 2 2 6 2 3 4 3 1 12 17 19 20 20 22 25
11 11 12 9 9 11 10 10 9 8 4 2 2 3 4 3 2 1 1 3 2 6 5 2 4 3 3 3 2 2 2 1 3 2 2 2 4 1 8 12 14 17 15 17 22
10 7 10 11 11 10 9 7 3 2 3 3 2 2 5 4 2 2 1 4 4 3 3 4 5 2 4 3 4 5 3 3 3 2 3 3 3 2 5 9 11 16 20 21 23
12 9 7 10 11 9 8 4 4 4 5 6 6 5 4 4 2 4 2 2 3 3 2 4 3 4 5 4 4 2 2 3 4 3 2 3 6 4 1 3 6 10 14 19 26
16 11 7 8 10 8 6 5 4 5 3 2 3 3 3 5 3 4 3 4 3 3 2 4 3 5 3 2 3 3 3 3 3 4 1 6 3 2 3 7 7 8 13 18 22
20 16 11 5 6 8 5 4 3 4 4 2 2 1 4 4 1 4 3 2 2 4 4 3 2 4 2 2 4 1 4 3 2 3 2 4 4 5 3 7 5 7 12 17 21
22 19 13 9 4 2 3 4 2 2 3 2 3 4 5 3 7 2 3 2 5 4 4 2 5 3 2 2 4 2 4 3 0 1 2 4 1 6 2 5 5 6 10 14 18
26 22 18 12 12 5 3 3 1 5 7 2 3 4 3 1 2 4 2 3 4 3 3 2 1 2 3 2 1 3 3 3 3 1 1 3 3 5 4 5 3 4 7 12 17
29 25 20 16 16 12 8 3 4 4 3 4 4 4 3 4 2 3 3 3 4 4 2 1 1 1 2 2 1 2 3 3 4 3 3 3 1 8 5 6 5 4 4 8 12
33 28 23 17 17 17 14 3 3 3 5 2 3 3 5 6 3 3 3 3 4 3 3 5 3 5 3 2 4 1 3 4 4 2 4 2 5 5 5 5 6 4 2 5 9
36 31 27 23 24 22 17 2 8 8 6 10 3 4 3 3 4 3 6 5 7 8 7 5 2 2 2 1 1 2 2 2 5 1 2 3 6 5 2 4 7 7 4 3 6
43 35 32 28 29 26 5 11 7 5 6 3 9 4 7 5 6 6 7 4 5 7 2 5 4 1 2 2 3 2 4 3 3 1 4 4 5 4 6 10 7 8 9 4 1
46 21 28 31 29 21 5 8 7 9 9 7 7 5 4 7 7 5 5 2 4 5 3 3 2 0 2 5 6 2 2 3 2 3 3 3 5 6 6 9 12 15 13 8 4
32 5 41 44 8 7 6 8 6 6 11 1 4 3 8 8 7 4 8 3 13 14 8 5 4 3 3 0 1 2 5 5 3 4 2 1 7 1 6 8 16 18 17 12 8
22 8 46 41 8 6 2 3 4 5 6 7 8 5 3 7 3 7 5 2 14 8 7 7 2 2 6 4 2 5 5 3 4 2 6 4 6 2 3 4 13 16 19 15 12
18 5 13 19 12 11 9 5 9 12 5 7 6 6 3 4 2 6 4 1 6 6 4 8 2 5 6 3 4 5 5 6 5 3 4 8 4 5 6 7 12 18 20 18 15
21 7 16 9 16 3 15 14 14 10 5 10 3 6 9 5 4 6 3 3 2 5 3 3 5 2 3 3 2 3 5 10 15 7 8 3 11 11 10 12 24 25 21 21 20
18 9 17 6 24 14 16 12 22 13 10 8 6 14 7 6 7 9 8 4 5 5 6 2 2 2 3 2 2 6 11 12 15 16 17 16 26 12 19 15 18 23 27 26 24
22 29 20 16 17 17 19 16 21 17 13 9 15 9 9 4 3 1 5 10 9 10 7 7 6 3 4 3 4 10 13 21 9 7 19 12 14 5 4 12 24 28 31 33 29
Wind_Direction
359 3 1 7 5 14 17 14 9 10 4 5 10 19 46 75 41 46 48 37 29 28 39 77 97 103 98 79 75 94 69 143 161 156 291 348 8 354 350 6 68 26 4 335 333
340 348 356 358 2 3 10 12 11 9 2 3 8 14 26 37 66 40 35 24 21 26 47 117 120 119 69 60 37 69 98 183 134 140 234 309 354 330 356 15 350 338 341 336 330
321 333 340 349 352 358 359 4 7 5 4 360 3 10 24 40 89 24 24 17 13 20 62 126 135 112 77 57 28 50 122 148 175 123 282 343 53 20 12 26 344 323 330 333 333
302 317 323 331 340 343 348 352 355 356 359 6 3 5 20 21 145 18 20 16 15 14 30 115 146 104 84 86 56 89 81 100 123 11 41 10 328 101 67 345 330 329 335 335 340
285 298 308 318 328 336 338 341 343 346 352 3 11 15 34 79 85 39 27 24 23 28 49 114 133 118 114 104 89 85 165 101 80 44 56 5 22 191 47 354 347 346 347 343 343
275 287 298 305 314 326 334 338 340 342 347 355 4 18 111 111 103 39 29 31 34 47 54 84 99 105 96 81 80 117 134 130 58 29 90 25 69 157 351 348 354 354 349 348 345
272 278 294 303 305 316 325 330 332 334 338 336 340 17 99 133 121 51 49 48 50 59 76 90 98 95 106 96 101 98 94 350 38 4 113 25 54 32 349 356 356 353 351 349 349
268 275 287 299 298 306 314 321 326 324 322 316 322 4 142 149 136 67 53 67 69 67 103 92 91 78 65 118 54 61 59 42 345 7 9 22 285 360 4 359 356 355 353 347 342
270 278 284 299 290 297 307 315 319 315 312 306 282 194 141 170 164 100 69 88 104 91 98 94 80 83 89 81 46 20 126 7 325 77 327 47 277 132 13 4 360 358 349 347 347
284 280 282 282 285 291 301 308 310 300 292 298 200 131 174 180 163 132 85 100 118 128 91 81 73 76 43 74 198 203 104 253 247 305 345 269 265 161 14 5 360 354 340 344 343
282 294 284 282 279 288 296 316 326 292 281 243 190 163 154 181 197 177 144 128 118 99 80 24 74 131 158 107 126 125 137 202 252 257 310 229 288 334 12 2 351 353 4 358 354
265 285 293 283 277 284 299 317 308 297 302 250 232 221 193 184 184 172 179 175 121 110 103 32 130 183 125 125 108 105 115 283 293 287 222 325 292 200 207 286 302 327 354 1 4
244 258 279 277 273 276 281 295 302 315 267 255 194 179 189 189 181 159 167 138 105 104 93 138 177 144 126 142 132 172 152 234 243 320 264 324 326 298 259 274 286 342 344 352 1
241 243 247 256 269 263 265 271 283 315 51 193 179 172 156 161 121 149 147 148 64 145 130 124 149 155 135 186 149 241 185 187 296 30 290 20 287 289 257 284 269 321 346 359 1
237 234 236 202 194 202 247 222 249 329 347 68 140 143 149 171 140 159 143 126 147 145 125 163 160 161 172 226 186 170 152 184 233 150 310 336 84 268 333 278 277 312 344 356 359
231 226 225 208 194 199 222 200 179 45 249 141 131 152 122 132 155 136 132 106 106 94 42 137 177 179 184 95 200 147 123 54 61 97 348 248 113 278 198 210 257 280 344 1 2
225 219 217 208 189 174 190 192 41 167 347 206 179 167 164 160 171 164 156 164 164 111 178 43 218 217 153 112 313 114 71 338 352 9 227 182 85 247 230 224 219 257 339 4 7
218 211 201 200 181 167 165 40 153 245 216 120 118 109 181 160 194 148 134 213 231 115 130 162 284 175 165 211 183 162 167 155 228 269 291 155 237 251 209 200 220 234 314 360 2
203 197 195 190 185 171 142 149 210 197 166 151 85 146 264 210 159 148 200 216 200 180 168 147 183 106 81 145 129 166 188 156 109 48 4 217 278 279 158 211 213 228 250 323 358
194 186 193 185 181 164 103 230 217 199 137 163 178 149 182 202 162 182 189 207 193 194 183 205 116 81 133 95 47 179 155 73 11 40 296 279 272 242 214 225 217 219 220 234 332
190 168 186 177 172 147 193 225 217 213 170 169 191 137 185 179 181 197 205 239 169 150 126 143 83 140 109 203 183 147 206 69 119 151 193 292 263 214 218 204 200 207 202 200 208
177 152 167 168 145 190 195 192 204 179 196 151 120 127 176 171 169 223 216 240 172 151 163 198 137 163 188 237 291 226 208 169 141 216 227 155 270 237 236 216 197 194 195 191 193
174 130 169 171 197 198 169 222 200 154 184 173 195 199 179 169 193 194 189 337 169 158 161 181 266 63 351 358 351 225 197 164 113 104 204 151 263 155 260 208 200 194 193 193 192
153 131 176 212 232 183 164 178 204 198 216 172 162 131 124 174 269 168 147 75 187 180 189 141 150 181 188 166 135 204 193 182 157 162 192 225 254 217 221 218 216 209 202 196 196
180 180 180 194 218 191 175 174 192 194 207 185 215 193 173 159 147 172 135 113 57 181 129 144 201 158 260 250 229 237 204 192 209 199 194 234 221 224 209 208 215 214 204 200 202
178 158 169 160 183 183 191 207 197 186 150 206 192 193 196 163 197 178 140 183 185 175 160 172 170 96 301 358 258 259 235 233 223 231 252 263 278 209 226 221 220 217 208 208 209
231 208 180 175 176 178 208 189 196 178 207 190 180 164 190 175 123 68 138 166 173 157 164 153 140 119 260 342 336 291 222 210 199 208 218 218 238 135 174 198 222 220 213 215 211